Linn Creek, MO

6:49 AM CST on December 06, 2016 (GMT -0600)
Camdenton

Weather History for KH21 - October, 2011

Change the Weather History Date:

Thursday, October 27, 2011

  Actual Average (KAIZ) Record (KAIZ)
Temperature  
Mean Temperature 48 °F -  
Max Temperature 53 °F 63 °F 84 °F (1999)
Min Temperature 44 °F 44 °F 26 °F (2001)
Degree Days  
Heating Degree Days 16    
Moisture  
Dew Point 37 °F    
Average Humidity 67    
Maximum Humidity 87    
Minimum Humidity 47    
Precipitation  
Precipitation 0.00 in - - ()
Sea Level Pressure  
Sea Level Pressure 30.09 in    
Wind  
Wind Speed 5 mph ()    
Max Wind Speed 12 mph    
Max Gust Speed 17 mph    
Visibility 10.0 miles    
Events      
Averages and records for this station are not official NWS values.
T = Trace of Precipitation, MM = Missing Value Source: Averaged Metar Reports

Daily Weather History Graph

Daily Weather History Graph

Search for Another Location

Airport or City:

Trip Planner

Search our weather history database for the weather conditions in past years. The results will help you decide how hot, cold, wet, or windy it might be!

Date:

Astronomy

Oct. 27, 2011 Rise Set
Actual Time 7:30 AM CDT 6:17 PM CDT
Civil Twilight 7:03 AM CDT 6:44 PM CDT
Nautical Twilight 6:33 AM CDT 7:15 PM CDT
Astronomical Twilight 6:02 AM CDT 7:46 PM CDT
Moon 8:32 AM CDT (10/27) 6:49 PM CDT (10/27)
Length of Visible Light 11h 40m
Length of Day
10h 46m
New Moon, 1% of the Moon is Illuminated
Oct 27
New Moon
Nov 2
First Quarter
Nov 10
Full
Nov 18
Last Quarter
Nov 25
New

Hourly Weather History & Observations

Time (CDT) Temp. Windchill Dew Point Humidity Pressure Visibility Wind Dir Wind Speed Gust Speed Precip Events Conditions
12:15 AM 46.4 °F 45.2 °F 42.8 °F 87% 30.00 in 10.0 mi NNW 3.5 mph - N/A   Overcast
12:35 AM 46.4 °F 44.3 °F 42.8 °F 87% 30.01 in 10.0 mi NW 4.6 mph - N/A   Overcast
12:55 AM 46.4 °F 42.9 °F 42.8 °F 87% 30.00 in 10.0 mi NNW 6.9 mph - N/A   Overcast
1:15 AM 46.4 °F 43.5 °F 42.8 °F 87% 30.01 in 10.0 mi NNW 5.8 mph - N/A   Overcast
1:35 AM 46.4 °F 43.5 °F 42.8 °F 87% 30.00 in 10.0 mi NNW 5.8 mph - N/A   Overcast
1:55 AM 46.4 °F 42.9 °F 42.8 °F 87% 30.02 in 10.0 mi NNW 6.9 mph - N/A   Overcast
2:15 AM 46.4 °F 42.9 °F 41.0 °F 81% 30.02 in 10.0 mi NNW 6.9 mph - N/A   Overcast
2:35 AM 46.4 °F 41.9 °F 41.0 °F 81% 30.03 in 10.0 mi NNW 9.2 mph - N/A   Overcast
2:55 AM 46.4 °F 42.9 °F 41.0 °F 81% 30.03 in 10.0 mi NNW 6.9 mph - N/A   Overcast
3:15 AM 46.4 °F 42.9 °F 41.0 °F 81% 30.03 in 10.0 mi NNW 6.9 mph - N/A   Overcast
3:35 AM 46.4 °F 43.5 °F 41.0 °F 81% 30.04 in 10.0 mi NNW 5.8 mph - N/A   Overcast
3:55 AM 46.4 °F 41.9 °F 41.0 °F 81% 30.04 in 10.0 mi NNW 9.2 mph - N/A   Overcast
4:15 AM 46.4 °F 41.1 °F 41.0 °F 81% 30.03 in 10.0 mi NNW 11.5 mph 17.3 mph N/A   Overcast
4:35 AM 46.4 °F 41.5 °F 39.2 °F 76% 30.04 in 10.0 mi NNW 10.4 mph 17.3 mph N/A   Overcast
4:55 AM 46.4 °F 42.9 °F 39.2 °F 76% 30.04 in 10.0 mi NNW 6.9 mph - N/A   Overcast
5:35 AM 46.4 °F 42.4 °F 39.2 °F 76% 30.05 in 10.0 mi NNW 8.1 mph - N/A   Overcast
5:55 AM 46.4 °F 43.5 °F 39.2 °F 76% 30.06 in 10.0 mi NNW 5.8 mph - N/A   Overcast
6:15 AM 46.4 °F 43.5 °F 39.2 °F 76% 30.06 in 10.0 mi NNW 5.8 mph - N/A   Overcast
6:35 AM 44.6 °F 40.7 °F 39.2 °F 81% 30.06 in 10.0 mi North 6.9 mph - N/A   Overcast
6:55 AM 44.6 °F 41.4 °F 39.2 °F 81% 30.07 in 10.0 mi North 5.8 mph - N/A   Mostly Cloudy
7:15 AM 44.6 °F 40.7 °F 39.2 °F 81% 30.06 in 10.0 mi North 6.9 mph - N/A   Overcast
7:35 AM 44.6 °F 42.2 °F 39.2 °F 81% 30.06 in 10.0 mi North 4.6 mph - N/A   Overcast
7:55 AM 44.6 °F - 39.2 °F 81% 30.07 in 10.0 mi Calm Calm - N/A   Overcast
8:15 AM 44.6 °F 43.1 °F 39.2 °F 81% 30.08 in 10.0 mi NNW 3.5 mph - N/A   Overcast
8:35 AM 44.6 °F 42.2 °F 39.2 °F 81% 30.09 in 10.0 mi NNW 4.6 mph - N/A   Overcast
8:55 AM 46.4 °F - 39.2 °F 76% 30.10 in 10.0 mi Calm Calm - N/A   Overcast
9:15 AM 46.4 °F 44.3 °F 39.2 °F 76% 30.10 in 10.0 mi North 4.6 mph - N/A   Overcast
9:35 AM 46.4 °F - 41.0 °F 81% 30.11 in 10.0 mi Calm Calm - N/A   Overcast
9:55 AM 46.4 °F 43.5 °F 41.0 °F 81% 30.12 in 10.0 mi North 5.8 mph - N/A   Overcast
10:15 AM 46.4 °F 43.5 °F 39.2 °F 76% 30.12 in 10.0 mi NNW 5.8 mph - N/A   Overcast
10:35 AM 46.4 °F 42.9 °F 39.2 °F 76% 30.11 in 10.0 mi NNW 6.9 mph - N/A   Mostly Cloudy
11:15 AM 48.2 °F - 37.4 °F 66% 30.11 in 10.0 mi North 4.6 mph - N/A   Scattered Clouds
11:35 AM 50.0 °F - 37.4 °F 62% 30.11 in 10.0 mi North 8.1 mph - N/A   Mostly Cloudy
12:15 PM 50.0 °F - 37.4 °F 62% 30.12 in 10.0 mi NNW 9.2 mph - N/A   Mostly Cloudy
12:35 PM 51.8 °F - 35.6 °F 54% 30.10 in 10.0 mi NNE 4.6 mph - N/A   Scattered Clouds
12:55 PM 51.8 °F - 35.6 °F 54% 30.10 in 10.0 mi NNE 6.9 mph - N/A   Mostly Cloudy
1:15 PM 51.8 °F - 35.6 °F 54% 30.10 in 10.0 mi North 5.8 mph - N/A   Mostly Cloudy
1:35 PM 53.6 °F - 35.6 °F 51% 30.09 in 10.0 mi NNE 5.8 mph - N/A   Scattered Clouds
1:55 PM 51.8 °F - 35.6 °F 54% 30.09 in 10.0 mi North 4.6 mph - N/A   Mostly Cloudy
2:15 PM 53.6 °F - 35.6 °F 51% 30.08 in 10.0 mi NNE 6.9 mph - N/A   Mostly Cloudy
2:35 PM 53.6 °F - 35.6 °F 51% 30.09 in 10.0 mi North 6.9 mph - N/A   Mostly Cloudy
2:55 PM 53.6 °F - 33.8 °F 47% 30.08 in 10.0 mi North 8.1 mph - N/A   Scattered Clouds
3:15 PM 53.6 °F - 33.8 °F 47% 30.08 in 10.0 mi North 6.9 mph - N/A   Scattered Clouds
3:35 PM 53.6 °F - 33.8 °F 47% 30.07 in 10.0 mi North 9.2 mph - N/A   Clear
3:55 PM 53.6 °F - 33.8 °F 47% 30.07 in 10.0 mi NNW 5.8 mph - N/A   Clear
4:15 PM 53.6 °F - 33.8 °F 47% 30.08 in 10.0 mi NNW 9.2 mph - N/A   Clear
4:35 PM 51.8 °F - 32.0 °F 47% 30.08 in 10.0 mi NNW 8.1 mph - N/A   Clear
4:55 PM 51.8 °F - 32.0 °F 47% 30.09 in 10.0 mi North 6.9 mph - N/A   Clear
5:15 PM 51.8 °F - 32.0 °F 47% 30.09 in 10.0 mi North 6.9 mph - N/A   Clear
5:35 PM 51.8 °F - 32.0 °F 47% 30.09 in 10.0 mi NNW 9.2 mph - N/A   Clear
5:55 PM 51.8 °F - 32.0 °F 47% 30.10 in 10.0 mi North 4.6 mph - N/A   Clear
6:15 PM 50.0 °F - 32.0 °F 50% 30.11 in 10.0 mi Calm Calm - N/A   Clear
6:35 PM 50.0 °F - 32.0 °F 50% 30.11 in 10.0 mi North 3.5 mph - N/A   Clear
6:55 PM 50.0 °F - 32.0 °F 50% 30.12 in 10.0 mi Calm Calm - N/A   Clear
7:15 PM 48.2 °F - 32.0 °F 54% 30.12 in 10.0 mi Calm Calm - N/A   Clear
7:35 PM 50.0 °F - 32.0 °F 50% 30.13 in 10.0 mi Calm Calm - N/A   Clear
8:15 PM 48.2 °F - 33.8 °F 58% 30.15 in 10.0 mi NW 3.5 mph - N/A   Overcast
8:35 PM 48.2 °F - 33.8 °F 58% 30.16 in 10.0 mi Calm Calm - N/A   Overcast
8:55 PM 46.4 °F - 35.6 °F 66% 30.16 in 10.0 mi Calm Calm - N/A   Overcast
9:15 PM 46.4 °F 45.2 °F 35.6 °F 66% 30.16 in 10.0 mi NW 3.5 mph - N/A   Scattered Clouds
9:35 PM 46.4 °F - 33.8 °F 62% 30.15 in 7.0 mi Calm Calm - N/A   Scattered Clouds
9:55 PM 46.4 °F - 35.6 °F 66% 30.15 in 10.0 mi Calm Calm - N/A   Overcast
10:15 PM 46.4 °F - 35.6 °F 66% 30.16 in 10.0 mi Calm Calm - N/A   Overcast
10:35 PM 46.4 °F - 33.8 °F 62% 30.15 in 10.0 mi Calm Calm - N/A   Overcast
10:55 PM 46.4 °F - 33.8 °F 62% 30.15 in 10.0 mi Calm Calm - N/A   Mostly Cloudy
11:15 PM 46.4 °F - 35.6 °F 66% 30.15 in 10.0 mi Calm Calm - N/A   Mostly Cloudy
11:55 PM 46.4 °F - 35.6 °F 66% 30.15 in 10.0 mi Calm Calm - N/A   Mostly Cloudy